Sigfox identifier Datetime Temperature Humidity SNR
002EF7E7 2019-04-23 15:00:09 16.3 32 22.9
002EF7E7 2019-04-23 14:29:35 16.2 32 22.9
002EF7E7 2019-04-23 13:59:01 16 31 22.9
002EF7E7 2019-04-23 13:28:28 16 32 23.1
002EF7E7 2019-04-23 12:57:53 16 31 23.1
002EF7E7 2019-04-23 12:27:18 15.9 31 22.9
002EF7E7 2019-04-23 11:56:45 15.8 31 22.8
002EF7E7 2019-04-23 11:26:11 15.8 31 22.7
002EF7E7 2019-04-23 10:55:37 15.8 31 22.7
002EF7E7 2019-04-23 10:25:01 15.8 31 22.9
002EF7E7 2019-04-23 09:54:27 15.7 31 22.7
002EF7E7 2019-04-23 09:23:52 15.7 31 22.6
002EF7E7 2019-04-23 08:53:16 15.7 31 22.6
002EF7E7 2019-04-23 08:22:42 15.7 31 22.5
002EF7E7 2019-04-23 07:52:08 15.7 31 22.2
002EF7E7 2019-04-23 07:21:33 15.6 31 22.2
002EF7E7 2019-04-23 06:50:57 15.7 31 22.1
002EF7E7 2019-04-23 06:20:24 15.6 31 22.1
002EF7E7 2019-04-23 05:49:47 15.6 31 22.1
002EF7E7 2019-04-23 05:19:11 15.6 31 22
002EF7E7 2019-04-23 04:48:37 15.7 31 21.8
002EF7E7 2019-04-23 04:18:02 15.7 31 21.8
002EF7E7 2019-04-23 03:47:27 15.7 31 21.7
002EF7E7 2019-04-23 03:16:53 15.6 31 21.6
002EF7E7 2019-04-23 02:46:17 15.7 31 21.5
002EF7E7 2019-04-23 02:15:42 15.8 31 21.5
002EF7E7 2019-04-23 01:45:08 15.8 31 21.4
002EF7E7 2019-04-23 01:14:33 15.8 31 21.3
002EF7E7 2019-04-23 00:43:57 15.8 31 21.1
002EF7E7 2019-04-23 00:13:22 15.8 31 21
002EF7E7 2019-04-22 23:42:47 15.8 31 20.9
002EF7E7 2019-04-22 23:12:13 15.8 30 20.9
002EF7E7 2019-04-22 22:41:38 15.9 30 20.8
002EF7E7 2019-04-22 22:11:05 15.8 30 20.8
002EF7E7 2019-04-22 21:40:31 15.9 30 20.8
002EF7E7 2019-04-22 21:09:57 16 30 20.8
002EF7E7 2019-04-22 20:39:24 16 30 20.9
002EF7E7 2019-04-22 20:08:50 16 30 20.8
002EF7E7 2019-04-22 19:38:17 16 30 21
002EF7E7 2019-04-22 19:07:43 16 30 21.1
002EF7E7 2019-04-22 18:37:09 16 30 21.1
002EF7E7 2019-04-22 18:06:35 16 30 21.1
002EF7E7 2019-04-22 17:36:01 16 30 21.1
002EF7E7 2019-04-22 17:05:27 16 30 21
002EF7E7 2019-04-22 16:34:52 16 30 21.3
002EF7E7 2019-04-22 16:04:19 15.9 30 21.3
002EF7E7 2019-04-22 15:33:45 15.8 30 21.3
002EF7E7 2019-04-22 15:03:12 15.8 30 21.5
002EF7E7 2019-04-22 14:32:39 15.8 30 21.5
002EF7E7 2019-04-22 14:02:05 15.8 30 21.5
002EF7E7 2019-04-22 13:31:30 15.8 30 21.6
002EF7E7 2019-04-22 13:00:56 15.8 30 21.6
002EF7E7 2019-04-22 12:30:20 15.8 30 21.7
002EF7E7 2019-04-22 11:59:44 15.8 30 21.8
002EF7E7 2019-04-22 11:29:08 15.8 30 21.8
002EF7E7 2019-04-22 10:58:32 15.8 30 21.9
002EF7E7 2019-04-22 10:27:58 15.7 30 21.9
002EF7E7 2019-04-22 09:57:23 15.6 30 21.8
002EF7E7 2019-04-22 09:26:47 15.6 30 21.8
002EF7E7 2019-04-22 08:56:12 15.6 30 21.9
002EF7E7 2019-04-22 08:25:38 15.6 30 21.8
002EF7E7 2019-04-22 07:55:03 15.6 30 21.8
002EF7E7 2019-04-22 07:24:28 15.6 30 22.7
002EF7E7 2019-04-22 06:53:52 15.7 30 22.7
002EF7E7 2019-04-22 06:23:18 15.7 30 22.6
002EF7E7 2019-04-22 05:52:43 15.7 30 22.5
002EF7E7 2019-04-22 05:22:09 15.7 30 22.5
002EF7E7 2019-04-22 04:51:34 15.6 30 22.4
002EF7E7 2019-04-22 04:20:59 15.6 30 22.4
002EF7E7 2019-04-22 03:50:24 15.6 30 22.3
002EF7E7 2019-04-22 03:19:49 15.6 30 22.3
002EF7E7 2019-04-22 02:49:15 15.6 30 22.2
002EF7E7 2019-04-22 02:18:40 15.6 30 22.1
002EF7E7 2019-04-22 01:48:05 15.6 30 22.1
002EF7E7 2019-04-22 01:17:30 15.6 30 22.1
002EF7E7 2019-04-22 00:46:56 15.6 30 22
002EF7E7 2019-04-22 00:16:21 15.6 30 22
002EF7E7 2019-04-21 23:45:47 15.6 30 22
002EF7E7 2019-04-21 23:15:13 15.6 29 21.9
002EF7E7 2019-04-21 22:44:37 15.6 29 21.9
002EF7E7 2019-04-21 22:14:03 15.6 29 21.8
002EF7E7 2019-04-21 21:43:28 15.6 29 21.6
002EF7E7 2019-04-21 21:12:54 15.6 29 21.6
002EF7E7 2019-04-21 20:42:20 15.6 29 21.6
002EF7E7 2019-04-21 20:11:46 15.6 29 21.6
002EF7E7 2019-04-21 19:41:12 15.6 29 21.6
002EF7E7 2019-04-21 19:10:37 15.6 29 21.7
002EF7E7 2019-04-21 18:40:04 15.6 29 20.5
002EF7E7 2019-04-21 18:09:30 15.6 29 20.5
002EF7E7 2019-04-21 17:38:56 15.6 29 20.4
002EF7E7 2019-04-21 17:08:22 15.6 29 20.4
002EF7E7 2019-04-21 16:37:48 15.6 29 20.4
002EF7E7 2019-04-21 16:07:15 15.5 29 20.5
002EF7E7 2019-04-21 15:36:41 15.6 29 20.6
002EF7E7 2019-04-21 15:06:07 15.6 29 20.5
002EF7E7 2019-04-21 14:35:33 15.6 29 20.5
002EF7E7 2019-04-21 14:04:57 15.6 29 20.7
002EF7E7 2019-04-21 13:34:22 15.6 29 20.6
002EF7E7 2019-04-21 13:03:48 15.6 29 20.6
002EF7E7 2019-04-21 12:33:14 15.6 29 20.6
002EF7E7 2019-04-21 12:02:39 15.6 29 20.7
002EF7E7 2019-04-21 11:32:04 15.6 29 20.7
002EF7E7 2019-04-21 11:01:29 15.6 29 20.6
002EF7E7 2019-04-21 10:30:54 15.6 29 20.6
002EF7E7 2019-04-21 10:00:20 15.6 29 20.7
002EF7E7 2019-04-21 09:29:46 15.6 29 20.8
002EF7E7 2019-04-21 08:59:11 15.8 29 20.9
002EF7E7 2019-04-21 08:28:37 15.8 29 20.9
002EF7E7 2019-04-21 07:58:02 15.8 29 20.8
002EF7E7 2019-04-21 07:27:26 15.7 29 20.8
002EF7E7 2019-04-21 06:56:52 15.7 29 20.8
002EF7E7 2019-04-21 06:26:17 15.7 29 20.7
002EF7E7 2019-04-21 05:55:43 15.7 29 20.7
002EF7E7 2019-04-21 05:25:09 15.7 29 20.7
002EF7E7 2019-04-21 04:54:35 15.7 29 20.7
002EF7E7 2019-04-21 04:24:00 15.6 29 20.8
002EF7E7 2019-04-21 03:53:28 15.6 29 20.8
002EF7E7 2019-04-21 03:22:52 15.6 29 20.8
002EF7E7 2019-04-21 02:52:18 15.6 29 20.6
002EF7E7 2019-04-21 02:21:43 15.6 28 20.7
002EF7E7 2019-04-21 01:51:08 15.6 28 20.8
002EF7E7 2019-04-21 01:20:33 15.6 29 20.7
002EF7E7 2019-04-21 00:50:00 15.6 28 20.9
002EF7E7 2019-04-21 00:19:24 15.6 28 21
002EF7E7 2019-04-20 23:48:50 15.6 28 20.9
002EF7E7 2019-04-20 23:18:15 15.6 28 20.8
002EF7E7 2019-04-20 22:47:40 15.6 28 20.9
002EF7E7 2019-04-20 22:17:06 15.6 28 21
002EF7E7 2019-04-20 21:46:32 15.6 28 21.1
002EF7E7 2019-04-20 21:15:56 15.6 28 21.1
002EF7E7 2019-04-20 20:45:21 15.6 28 21.2
002EF7E7 2019-04-20 20:14:47 15.6 28 21.3
002EF7E7 2019-04-20 19:44:12 15.6 28 21.5
002EF7E7 2019-04-20 19:13:38 15.6 28 21.6
002EF7E7 2019-04-20 18:43:03 15.6 28 21.6
002EF7E7 2019-04-20 18:12:29 15.6 28 21.7
002EF7E7 2019-04-20 17:41:54 15.6 28 21.6
002EF7E7 2019-04-20 17:11:20 15.6 28 21.7
002EF7E7 2019-04-20 16:40:45 15.6 28 21.8
002EF7E7 2019-04-20 16:10:11 15.6 28 21.8
002EF7E7 2019-04-20 15:39:36 15.6 28 21.8
002EF7E7 2019-04-20 15:09:04 15.6 28 21.8
002EF7E7 2019-04-20 14:38:27 15.6 28 21.9
002EF7E7 2019-04-20 14:07:53 15.6 28 21.9
002EF7E7 2019-04-20 13:37:19 15.6 28 22
002EF7E7 2019-04-20 13:06:44 15.6 28 22
002EF7E7 2019-04-20 12:36:10 15.6 28 22
002EF7E7 2019-04-20 12:05:35 15.7 28 21.9
002EF7E7 2019-04-20 11:35:03 15.7 28 22
002EF7E7 2019-04-20 11:04:26 15.7 28 22.1
002EF7E7 2019-04-20 10:33:51 15.7 28 22
002EF7E7 2019-04-20 10:03:17 15.8 28 22
002EF7E7 2019-04-20 09:32:45 15.8 28 22
002EF7E7 2019-04-20 09:02:09 15.8 28 22
002EF7E7 2019-04-20 08:31:36 15.8 27 22
002EF7E7 2019-04-20 08:01:01 15.8 27 22
002EF7E7 2019-04-20 07:30:27 15.8 28 21.9
002EF7E7 2019-04-20 06:59:51 15.8 28 21.9
002EF7E7 2019-04-20 06:29:17 15.8 27 21.7
002EF7E7 2019-04-20 05:58:43 15.8 27 21.7
002EF7E7 2019-04-20 05:28:10 15.9 27 21.7
002EF7E7 2019-04-20 04:57:36 15.8 27 21.6
002EF7E7 2019-04-20 04:27:01 15.8 27 21.5
002EF7E7 2019-04-20 03:56:28 15.9 27 21.6
002EF7E7 2019-04-20 03:25:54 16 27 21.5
002EF7E7 2019-04-20 02:55:19 16 27 21.5
002EF7E7 2019-04-20 02:24:45 16 27 21.5
002EF7E7 2019-04-20 01:54:11 16 27 21.5
002EF7E7 2019-04-20 01:23:36 16 27 21.5
002EF7E7 2019-04-20 00:53:01 16 27 21.6
002EF7E7 2019-04-20 00:22:27 16.1 27 21.6
002EF7E7 2019-04-19 23:51:52 16.1 27 21.6
002EF7E7 2019-04-19 23:21:18 16.1 27 21.5
002EF7E7 2019-04-19 22:50:43 16.2 27 21.6
002EF7E7 2019-04-19 22:20:11 16.2 27 21.6
002EF7E7 2019-04-19 21:49:34 16.3 27 21.4
002EF7E7 2019-04-19 21:18:59 16.3 27 21.4
002EF7E7 2019-04-19 20:48:25 16.3 27 21.4
002EF7E7 2019-04-19 20:17:52 16.3 27 21.5
002EF7E7 2019-04-19 19:47:18 16.3 27 21.5
002EF7E7 2019-04-19 19:16:43 16.3 27 21.5
002EF7E7 2019-04-19 18:46:08 16.3 27 21.6
002EF7E7 2019-04-19 18:15:33 16.3 27 21.7
002EF7E7 2019-04-19 17:44:59 16.3 27 21.6
002EF7E7 2019-04-19 17:14:24 16.3 27 21.7
002EF7E7 2019-04-19 16:43:51 16.1 27 21.8
002EF7E7 2019-04-19 16:13:17 16.1 27 21.9
002EF7E7 2019-04-19 15:42:43 16.1 27 21.9
002EF7E7 2019-04-19 15:12:09 16 27 21.8
002EF7E7 2019-04-19 14:41:36 16 27 21.9
002EF7E7 2019-04-19 14:11:02 16 27 21.9
002EF7E7 2019-04-19 13:40:29 16 27 21.9
002EF7E7 2019-04-19 13:09:56 16 26 21.9
002EF7E7 2019-04-19 12:39:22 16 26 21.9
002EF7E7 2019-04-19 12:08:48 16 26 21.9
002EF7E7 2019-04-19 11:38:14 16 26 21.9
002EF7E7 2019-04-19 11:07:40 16 26 22
002EF7E7 2019-04-19 10:37:06 16 26 22
002EF7E7 2019-04-19 10:06:33 16 26 22
002EF7E7 2019-04-19 09:36:00 16 26 22.1
002EF7E7 2019-04-19 09:05:27 16 26 22
002EF7E7 2019-04-19 08:34:52 16 26 22
002EF7E7 2019-04-19 08:04:19 16 26 22
002EF7E7 2019-04-19 07:33:45 16 26 22.3
002EF7E7 2019-04-19 07:03:10 16 26 22.5
002EF7E7 2019-04-19 06:32:37 16 26 22.5
002EF7E7 2019-04-19 06:02:03 16 26 22.6
002EF7E7 2019-04-19 05:31:29 16 26 22.9
002EF7E7 2019-04-19 05:00:57 16.1 26 23
002EF7E7 2019-04-19 04:30:23 16.1 26 23.1
002EF7E7 2019-04-19 03:59:49 16.3 26 23.2
002EF7E7 2019-04-19 03:29:15 16.3 26 23.3
002EF7E7 2019-04-19 02:58:42 16.3 26 23.4
002EF7E7 2019-04-19 02:28:08 16.3 26 23.7
002EF7E7 2019-04-19 01:57:36 16.3 25 23.7
002EF7E7 2019-04-19 01:26:59 16.4 26 23.8
002EF7E7 2019-04-19 00:56:24 16.5 25 23.7
002EF7E7 2019-04-19 00:25:50 16.5 25 23.7
002EF7E7 2019-04-18 23:55:15 16.5 25 23.8
002EF7E7 2019-04-18 23:24:41 16.5 25 23.8
002EF7E7 2019-04-18 22:54:06 16.7 25 23.8
002EF7E7 2019-04-18 22:23:31 16.7 25 23.8
002EF7E7 2019-04-18 21:52:57 16.7 25 23.9
002EF7E7 2019-04-18 21:22:22 16.7 25 24
002EF7E7 2019-04-18 20:51:47 16.7 25 24
002EF7E7 2019-04-18 20:21:13 16.7 25 24.3
002EF7E7 2019-04-18 19:50:39 16.7 25 24.3
002EF7E7 2019-04-18 19:20:04 16.7 25 24.3
002EF7E7 2019-04-18 18:49:30 16.7 25 24.1
002EF7E7 2019-04-18 18:18:56 16.7 25 24
002EF7E7 2019-04-18 17:48:21 16.7 25 24
002EF7E7 2019-04-18 17:17:46 16.6 25 23.9
002EF7E7 2019-04-18 16:47:11 16.5 25 23.6
002EF7E7 2019-04-18 16:16:37 16.5 25 23.6
002EF7E7 2019-04-18 15:46:02 16.5 25 23.5
002EF7E7 2019-04-18 15:15:27 16.5 25 23.5
002EF7E7 2019-04-18 14:44:52 16.5 25 23.3
002EF7E7 2019-04-18 14:14:18 16.3 25 23.1
002EF7E7 2019-04-18 13:43:44 16.3 25 22.9
002EF7E7 2019-04-18 13:13:10 16.3 25 23
002EF7E7 2019-04-18 12:42:36 16.3 25 22.8
002EF7E7 2019-04-18 12:12:01 16.3 25 22.9
002EF7E7 2019-04-18 11:41:27 16.3 25 22.9
002EF7E7 2019-04-18 11:10:52 16.3 25 23
002EF7E7 2019-04-18 10:40:17 16.3 25 23
002EF7E7 2019-04-18 10:09:41 16.3 24 23.1
002EF7E7 2019-04-18 09:39:07 16.3 24 23.3
002EF7E7 2019-04-18 09:08:31 16.3 24 23.3
002EF7E7 2019-04-18 08:37:56 16.3 24 23.2
002EF7E7 2019-04-18 08:07:22 16.3 24 23.2
002EF7E7 2019-04-18 07:36:48 16.4 24 23
002EF7E7 2019-04-18 07:06:13 16.3 24 23.2
002EF7E7 2019-04-18 06:35:38 16.3 24 23.4
002EF7E7 2019-04-18 06:05:02 16.3 24 23.5
002EF7E7 2019-04-18 05:34:27 16.3 24 23.4
002EF7E7 2019-04-18 05:03:54 16.3 24 23.5
002EF7E7 2019-04-18 04:33:20 16.3 24 23.6
002EF7E7 2019-04-18 04:02:45 16.4 24 23.6
002EF7E7 2019-04-18 03:32:11 16.5 24 23.5
002EF7E7 2019-04-18 03:01:37 16.5 24 23.4
002EF7E7 2019-04-18 02:31:03 16.5 24 24
002EF7E7 2019-04-18 02:00:28 16.5 24 24
002EF7E7 2019-04-18 01:29:54 16.7 23 24
002EF7E7 2019-04-18 00:59:19 16.7 23 23.9
002EF7E7 2019-04-18 00:28:46 16.8 23 23.8
002EF7E7 2019-04-17 23:58:11 16.9 24 23.8
002EF7E7 2019-04-17 23:27:37 16.9 23 23.8
002EF7E7 2019-04-17 22:57:02 16.9 23 23.8
002EF7E7 2019-04-17 22:26:29 16.9 23 23.6
002EF7E7 2019-04-17 21:55:55 16.9 23 23.5
002EF7E7 2019-04-17 21:25:21 16.9 23 23.3
002EF7E7 2019-04-17 20:54:47 16.9 23 23.1
002EF7E7 2019-04-17 20:24:12 16.9 23 23.1
002EF7E7 2019-04-17 19:53:37 16.9 23 23
002EF7E7 2019-04-17 19:23:02 16.9 23 22.8
002EF7E7 2019-04-17 18:52:27 16.9 23 22.7
002EF7E7 2019-04-17 18:21:51 16.9 23 22.5
002EF7E7 2019-04-17 17:51:15 16.9 23 22.3
002EF7E7 2019-04-17 17:20:41 16.9 23 22.3
002EF7E7 2019-04-17 16:50:05 16.9 23 22.1
002EF7E7 2019-04-17 16:19:30 16.9 23 22.2
002EF7E7 2019-04-17 15:48:55 16.9 23 21.9
002EF7E7 2019-04-17 15:18:20 17.1 22 22
002EF7E7 2019-04-17 14:47:45 17.1 23 22
002EF7E7 2019-04-17 14:17:09 17.3 22 22.1
002EF7E7 2019-04-17 13:15:59 17.3 23 21.1
002EF7E7 2019-04-17 12:45:24 17.3 23 20.9
002EF7E7 2019-04-17 12:14:49 17.3 22 20.9
002EF7E7 2019-04-17 11:44:14 17.3 22 21
002EF7E7 2019-04-17 11:13:39 17.3 22 21.1
002EF7E7 2019-04-17 10:43:03 17.3 22 21
002EF7E7 2019-04-17 10:12:27 17.3 22 20.8
002EF7E7 2019-04-17 09:41:52 17.3 22 20.5
002EF7E7 2019-04-17 09:11:16 17.4 22 20.5
002EF7E7 2019-04-17 08:40:41 17.5 22 21.6
002EF7E7 2019-04-17 08:10:06 17.6 22 21.6
002EF7E7 2019-04-17 07:39:30 17.8 22 21.5
002EF7E7 2019-04-17 07:08:55 17.9 22 21.4
002EF7E7 2019-04-17 06:38:19 18 22 21.5
002EF7E7 2019-04-17 06:07:44 18 22 21.4
002EF7E7 2019-04-17 05:37:08 18 22 21.3
002EF7E7 2019-04-17 05:06:32 18.2 21 21.3
002EF7E7 2019-04-17 04:35:56 18.2 21 21.3
002EF7E7 2019-04-17 04:05:20 18.2 21 21.2
002EF7E7 2019-04-17 03:34:44 18.3 21 21.4
002EF7E7 2019-04-17 03:04:08 18.4 21 21.1
002EF7E7 2019-04-17 02:33:33 18.4 21 21
002EF7E7 2019-04-17 02:02:58 18.4 21 20.9
002EF7E7 2019-04-17 01:32:23 18.5 21 20.7
002EF7E7 2019-04-17 01:01:47 18.5 21 20.5
002EF7E7 2019-04-17 00:31:12 18.6 21 20.3
002EF7E7 2019-04-17 00:00:36 18.6 21 20.2
002EF7E7 2019-04-16 23:30:01 18.6 20 20
002EF7E7 2019-04-16 22:59:26 18.8 20 19.9
002EF7E7 2019-04-16 22:28:50 19 20 19.7
002EF7E7 2019-04-16 21:58:15 19 20 19.5
002EF7E7 2019-04-16 21:27:39 19.2 20 19.5
002EF7E7 2019-04-16 20:57:04 19.2 20 19.5
002EF7E7 2019-04-16 20:26:28 19.4 20 19.4
002EF7E7 2019-04-16 19:55:53 19.5 20 16.8
002EF7E7 2019-04-16 19:25:17 19.5 20 16.9
002EF7E7 2019-04-16 18:54:42 19.5 20 16.9
002EF7E7 2019-04-16 18:24:07 19.7 20 16.9
002EF7E7 2019-04-16 17:53:30 19.7 20 16.5
002EF7E7 2019-04-16 16:52:19 20.1 19 16.4
002EF7E7 2019-04-16 16:21:48 20.3 19 16.5
002EF7E7 2019-04-16 15:51:08 20.5 19 16
002EF7E7 2019-04-16 15:20:31 20.7 19 15.5
002EF7E7 2019-04-16 14:49:55 21 19 14.7
002EF7E7 2019-04-16 14:19:20 21.2 20 13.3
002EF7E7 2019-04-16 13:48:44 21.2 21 13.5
002EF7E7 2019-04-16 13:18:10 21.2 21 13.4
002EF7E7 2019-04-16 12:47:32 21.2 21 13.3
002EF7E7 2019-04-16 12:16:59 21.2 21 13.4
002EF7E7 2019-04-16 11:46:23 21.2 21 13.6
002EF7E7 2019-04-16 11:15:46 21 21 13.7
002EF7E7 2019-04-16 10:45:08 21 20 13.7
002EF7E7 2019-04-16 10:14:34 21 20 13.7
002EF7E7 2019-04-16 09:43:57 21 20 13.7
002EF7E7 2019-04-16 08:42:44 21 20 13.8
002EF7E7 2019-04-16 08:12:06 21 20 13.9
002EF7E7 2019-04-16 07:41:32 21 20 14
002EF7E7 2019-04-16 07:10:53 21 20 13.9
002EF7E7 2019-04-16 06:40:15 21 20 14
002EF7E7 2019-04-16 06:09:39 21 20 14
002EF7E7 2019-04-16 05:39:02 21 20 13.8
002EF7E7 2019-04-16 05:08:26 21 20 13.6
002EF7E7 2019-04-16 04:37:50 21.1 20 13.5
002EF7E7 2019-04-16 04:07:14 21.1 20 13.4
002EF7E7 2019-04-16 03:36:39 21.2 20 13.4
002EF7E7 2019-04-16 03:06:03 21.2 20 13.2
002EF7E7 2019-04-16 02:35:27 21.2 20 13.2
002EF7E7 2019-04-16 02:04:49 21.2 20 12.8
002EF7E7 2019-04-16 01:34:13 21.2 20 12.6
002EF7E7 2019-04-16 01:03:37 21.2 20 13.4
002EF7E7 2019-04-16 00:32:59 21.2 20 14.8
002EF7E7 2019-04-16 00:02:23 21.2 19 16.2
002EF7E7 2019-04-15 23:31:47 21.2 19 16.2
002EF7E7 2019-04-15 23:01:10 21.2 19 18
002EF7E7 2019-04-15 22:30:34 21.2 19 19.1
002EF7E7 2019-04-15 21:59:57 21.2 19 19.6
002EF7E7 2019-04-15 21:29:21 21.2 19 20.2
002EF7E7 2019-04-15 20:58:44 21.2 19 20.6
002EF7E7 2019-04-15 20:28:09 21.2 19 21.3
002EF7E7 2019-04-15 19:57:32 21.2 19 21.7
002EF7E7 2019-04-15 19:26:57 21.3 19 22.1
002EF7E7 2019-04-15 18:56:21 21.4 19 22.4
002EF7E7 2019-04-15 18:25:45 21.4 19 22.7
002EF7E7 2019-04-15 17:55:08 21.4 19 23.1
002EF7E7 2019-04-15 17:24:32 21.5 19 23.2
002EF7E7 2019-04-15 16:53:57 21.6 19 23.4
002EF7E7 2019-04-15 15:52:45 21.6 18 23.8
002EF7E7 2019-04-15 15:22:10 21.8 18 23.9
002EF7E7 2019-04-15 14:51:36 21.8 18 24.1
002EF7E7 2019-04-15 14:20:59 22 18 24.3
002EF7E7 2019-04-15 13:50:26 22.1 18 24.6
002EF7E7 2019-04-15 13:19:48 22.2 18 24.8
002EF7E7 2019-04-15 12:49:12 22.4 18 25
002EF7E7 2019-04-15 12:18:37 22.5 17 25.2
002EF7E7 2019-04-15 11:47:59 22.4 15 25.2
002EF7E7 2019-04-15 11:17:23 22.3 16 25.2
002EF7E7 2019-04-15 10:46:46 22.2 16 25.3
002EF7E7 2019-04-15 10:16:10 22.2 16 25.7
002EF7E7 2019-04-15 09:45:34 22.2 17 25.7
002EF7E7 2019-04-15 09:14:59 22.2 17 25.6
002EF7E7 2019-04-15 08:44:22 22 17 25.7
002EF7E7 2019-04-15 08:13:47 22 16 25.7
002EF7E7 2019-04-15 07:43:11 22 17 25.8
002EF7E7 2019-04-15 07:12:34 22 17 25.8
002EF7E7 2019-04-15 06:41:59 22 17 25.7
002EF7E7 2019-04-15 06:11:23 21.9 17 25.6
002EF7E7 2019-04-15 05:40:48 21.9 17 25.6
002EF7E7 2019-04-15 05:10:13 21.8 17 25.5
002EF7E7 2019-04-15 04:39:37 21.8 17 25.5
002EF7E7 2019-04-15 04:09:02 21.9 17 25.6
002EF7E7 2019-04-15 03:38:27 21.9 17 25.5
002EF7E7 2019-04-15 03:07:50 21.8 17 25.4
002EF7E7 2019-04-15 02:37:14 21.9 17 25.5
002EF7E7 2019-04-15 02:06:37 21.9 17 25.5
002EF7E7 2019-04-15 01:36:01 21.8 17 25.4
002EF7E7 2019-04-15 01:05:24 21.9 17 25.4
002EF7E7 2019-04-15 00:34:48 21.8 17 25.5
002EF7E7 2019-04-15 00:04:13 21.9 17 25.5
002EF7E7 2019-04-14 23:33:36 21.9 17 25.4
002EF7E7 2019-04-14 23:03:01 22 17 25.4
002EF7E7 2019-04-14 22:32:25 22 17 25.3
002EF7E7 2019-04-14 22:01:49 22 17 25.2
002EF7E7 2019-04-14 21:31:13 22 18 24.9
002EF7E7 2019-04-14 21:00:37 22 18 25
002EF7E7 2019-04-14 20:30:00 22.1 18 25
002EF7E7 2019-04-14 19:59:22 22.1 18 25.3
002EF7E7 2019-04-14 19:28:48 22.1 18 25.2
002EF7E7 2019-04-14 18:58:11 22 18 25.1
002EF7E7 2019-04-14 18:27:35 22 18 25
002EF7E7 2019-04-14 17:56:59 22 18 25
002EF7E7 2019-04-14 17:26:23 22 18 25.2
002EF7E7 2019-04-14 16:55:47 22 18 25.3
002EF7E7 2019-04-14 16:25:11 22 18 25.3
002EF7E7 2019-04-14 15:54:36 22 18 25.2
002EF7E7 2019-04-14 15:24:00 22 18 25.6
002EF7E7 2019-04-14 14:53:24 22 18 25.7
002EF7E7 2019-04-14 14:22:48 22 18 26
002EF7E7 2019-04-14 13:52:13 22 18 25.9
002EF7E7 2019-04-14 13:21:37 22 18 26
002EF7E7 2019-04-14 12:51:02 22 18 25.9
002EF7E7 2019-04-14 12:20:27 22 18 25.9
002EF7E7 2019-04-14 11:49:51 22 18 25.8
002EF7E7 2019-04-14 11:19:15 22 18 25.8
002EF7E7 2019-04-14 10:48:39 22 18 25.8
002EF7E7 2019-04-14 10:18:04 22 18 25.9
002EF7E7 2019-04-14 09:47:28 22 18 25.9
002EF7E7 2019-04-14 09:16:54 22 18 26.2
002EF7E7 2019-04-14 08:46:17 22 18 26.2
002EF7E7 2019-04-14 08:15:42 22 18 26.1
002EF7E7 2019-04-14 07:45:07 22 18 26.2
002EF7E7 2019-04-14 07:14:31 22 17 25.9
002EF7E7 2019-04-14 06:43:57 22 17 25.9
002EF7E7 2019-04-14 06:13:22 22 17 25.9
002EF7E7 2019-04-14 05:42:47 22 17 26
002EF7E7 2019-04-14 05:12:12 22 17 26
002EF7E7 2019-04-14 04:41:37 22 17 25.9
002EF7E7 2019-04-14 04:11:01 22 17 25.8
002EF7E7 2019-04-14 03:40:25 22 17 26
002EF7E7 2019-04-14 03:09:50 22 18 26.3
002EF7E7 2019-04-14 02:39:14 22 17 26
002EF7E7 2019-04-14 02:08:38 22 18 26
002EF7E7 2019-04-14 01:38:01 22 18 25.7
002EF7E7 2019-04-14 01:07:26 22 18 25.7
002EF7E7 2019-04-14 00:36:50 22 18 25.6
002EF7E7 2019-04-14 00:06:14 22 17 25.8
002EF7E7 2019-04-13 23:35:38 22.1 17 25.8
002EF7E7 2019-04-13 23:05:01 22.1 17 26.1
002EF7E7 2019-04-13 22:34:27 22.2 17 26
002EF7E7 2019-04-13 22:03:51 22.2 17 26
002EF7E7 2019-04-13 21:33:15 22.2 17 26
002EF7E7 2019-04-13 21:02:40 22.2 17 26
002EF7E7 2019-04-13 20:32:03 22.2 17 25.7
002EF7E7 2019-04-13 20:01:28 22.2 17 25.9
002EF7E7 2019-04-13 19:30:52 22.2 17 25.8
002EF7E7 2019-04-13 19:00:17 22.2 17 25.7
002EF7E7 2019-04-13 18:29:40 22.2 17 25.8
002EF7E7 2019-04-13 17:59:04 22.2 17 25.8
002EF7E7 2019-04-13 17:28:30 22.3 17 25.8
002EF7E7 2019-04-13 16:57:54 22.3 17 25.8
002EF7E7 2019-04-13 16:27:18 22.5 17 25.8
002EF7E7 2019-04-13 15:56:42 22.4 17 26.1
002EF7E7 2019-04-13 15:26:06 22.4 17 26.1
002EF7E7 2019-04-13 14:55:30 22.5 17 25.9
002EF7E7 2019-04-13 14:24:54 22.5 17 25.6
002EF7E7 2019-04-13 13:54:17 22.5 17 25.6
002EF7E7 2019-04-13 13:23:41 22.5 17 25.6
002EF7E7 2019-04-13 12:53:05 22.5 17 25.4
002EF7E7 2019-04-13 12:22:28 22.5 17 25.5
002EF7E7 2019-04-13 11:51:52 22.5 17 25.6
002EF7E7 2019-04-13 11:21:16 22.5 17 25.5
002EF7E7 2019-04-13 10:50:39 22.5 17 25.6
002EF7E7 2019-04-13 10:20:03 22.5 17 25.6
002EF7E7 2019-04-13 09:49:27 22.5 17 25.6
002EF7E7 2019-04-13 09:18:50 22.5 17 25.7
002EF7E7 2019-04-13 08:48:12 22.5 17 25.7
002EF7E7 2019-04-13 08:17:37 22.5 17 26
002EF7E7 2019-04-13 07:46:58 22.5 17 26
002EF7E7 2019-04-13 07:16:22 22.5 17 25.9
002EF7E7 2019-04-13 06:45:43 22.5 17 26
002EF7E7 2019-04-13 06:15:07 22.5 17 26
002EF7E7 2019-04-13 05:44:30 22.5 17 25.9
002EF7E7 2019-04-13 05:13:52 22.5 17 25.8
002EF7E7 2019-04-13 04:43:15 22.5 17 25.7
002EF7E7 2019-04-13 04:12:39 22.5 17 25.6
002EF7E7 2019-04-13 03:42:03 22.5 17 25.7
002EF7E7 2019-04-13 03:11:27 22.5 17 25.7
002EF7E7 2019-04-13 02:40:50 22.5 17 26
002EF7E7 2019-04-13 02:10:14 22.5 17 26
002EF7E7 2019-04-13 01:39:37 22.6 17 25.9
002EF7E7 2019-04-13 01:09:00 22.7 17 25.9
002EF7E7 2019-04-13 00:38:24 22.7 18 26
002EF7E7 2019-04-13 00:07:47 22.7 18 26.1
002EF7E7 2019-04-12 23:37:12 22.7 18 26.1
002EF7E7 2019-04-12 23:06:36 22.7 18 26.2
002EF7E7 2019-04-12 22:36:00 22.8 18 26.2
002EF7E7 2019-04-12 22:05:23 22.9 18 26.2
002EF7E7 2019-04-12 21:34:47 22.9 18 25.9
002EF7E7 2019-04-12 21:04:10 22.9 18 26
002EF7E7 2019-04-12 20:33:34 22.9 18 26
002EF7E7 2019-04-12 20:02:57 22.9 17 26
002EF7E7 2019-04-12 19:32:20 22.9 17 25.4
002EF7E7 2019-04-12 19:01:43 22.9 17 25.5
002EF7E7 2019-04-12 18:31:06 23 16 25.5
002EF7E7 2019-04-12 18:00:29 23.1 16 25.4
002EF7E7 2019-04-12 17:29:53 23.1 16 25.6
002EF7E7 2019-04-12 16:59:16 23.1 16 25.8
002EF7E7 2019-04-12 16:28:38 23.1 17 26.3
002EF7E7 2019-04-12 15:58:00 23.1 17 26.7
002EF7E7 2019-04-12 15:27:25 23 17 27.3
002EF7E7 2019-04-12 14:56:48 22.9 17 27.4
002EF7E7 2019-04-12 14:26:11 22.7 17 26.1
002EF7E7 2019-04-12 13:55:33 22.2 17 20.2
002EF7E7 2019-04-12 13:24:56 21.6 20 13.7
002EF7E7 2019-04-12 12:54:19 20.5 24 0